{"data":{"norad_id":58023,"epoch":"2026-05-25T04:49:09.933024Z","epoch_age_seconds":50973,"freshness":"FRESH","line1":"1 58023U 23155H   26145.20080941  .00005052  00000+0  21418-3 0  9996","line2":"2 58023  97.5689 226.5890 0003350 104.2383 255.9226 15.23587425144853","mean_motion":15.23587425,"eccentricity":0.000335,"inclination_deg":97.5689,"raan_deg":226.589,"arg_perigee_deg":104.2383,"mean_anomaly_deg":255.9226,"bstar":0.00021418,"rev_number":14485,"period_min":94.513775604311,"perigee_km":492.72789050986,"apogee_km":497.33291266892,"semimajor_km":6873.1674015894,"source":"CELESTRAK","updated_at":"2026-05-25T13:38:00.427661Z"}}